User: anonymous   Login
Location: The Saddle
(36.8333°N, 80.3417°W)
Time: 20:47:21
(UTC-04:00)
Language:

CUBEBUG 2 - Orbit

View from above orbital plane
View from above orbital plane
View from above satellite
View from above satellite

Ground track
Ground track

The orbit data is extracted from the following two-line orbital elements,

1 39440U 13066AA  24104.53715743  .00004565  00000-0  55050-3 0  9990
2 39440  97.8091  49.6634 0072560 124.4338 236.3762 14.82415229558750
Epoch (UTC): 13 April 2024 12:53:30
Eccentricity: 0.0072560
inclination: 97.8091°
perigee height: 571 km
apogee height: 672 km
right ascension of ascending node: 49.6634°
argument of perigee: 124.4338°
revolutions per day: 14.82415229
mean anomaly at epoch: 236.3762°
orbit number at epoch: 55875

The dashed part of the orbit path shows where the satellite is in the earth's shadow,  

DLR